Location: T�bingen+AIT
(48.5342°N, 9.0700°E)
Time: 20:27:58
(UTC+02:00)

Cosmos 1437 Rocket - Pass Details

Date: 14 September 2017
Orbit: 507 x 565 km, 81.2° (Epoch: 19 September)

Event Time Altitude Azimuth Distance (km) Brightness Sun altitude
Rises 19:59:25 0° 201° (SSW) 2,623 6.4 -4.3°
Reaches altitude 10° 20:01:35 10° 206° (SSW) 1,734 5.6 -4.6°
Maximum altitude 20:05:19 55° 285° (WNW) 623 3.6 -5.2°
Drops below altitude 10° 20:09:03 10° 3° (N) 1,736 5.5 -5.9°
Sets 20:11:13 0° 8° (N) 2,626 6.3 -6.2°
